Location: The D'Auria's Ocala Star Observatory
(29.0276°N, 82.1742°W)
Time: 23:53:50
(UTC-04:00)

Okean 3 Rocket - Visible Passes

Search period start: 19 September 2014 00:00
Search period end: 29 September 2014 00:00
Orbit: 617 x 646 km, 82.5° (Epoch: 18 September)

Date Brightness Start Highest point End Pass type
(mag) Time Alt. Az. Time Alt. Az. Time Alt. Az.
19 Sep 4.2 06:51:10 10° S 06:55:39 67° E 07:00:10 10° NNE visible
21 Sep 6.4 05:57:05 10° SE 06:00:28 21° E 06:03:53 10° NE visible
22 Sep 4.8 06:17:18 10° SSE 06:21:38 47° E 06:26:00 10° NNE visible
23 Sep 3.6 06:38:23 10° S 06:42:54 73° W 06:47:27 10° N visible
24 Sep 6.7 05:23:50 10° SE 05:26:30 16° E 05:29:11 10° NE visible
25 Sep 5.3 05:43:32 10° SSE 05:47:37 34° E 05:51:44 10° NNE visible
26 Sep 3.7 06:04:19 10° S 06:08:51 81° E 06:13:24 10° N visible
27 Sep 6.8 04:51:14 10° ESE 04:52:33 11° E 04:53:52 10° ENE visible
27 Sep 4.0 06:25:53 10° SSW 06:30:11 43° W 06:34:30 10° N visible
28 Sep 5.8 05:09:55 10° SE 05:13:37 25° E 05:17:20 10° NE visible
28 Sep 5.0 06:48:22 10° SW 06:51:38 20° WNW 06:54:55 10° NNW visible
